Weather History for KRDU - July, 2013

Change the Weather History Date:

Tuesday, July 2, 2013

  Actual Average Record
Temperature  
Mean Temperature 75 °F 80 °F  
Max Temperature 77 °F 90 °F 101 °F (1954)
Min Temperature 72 °F 69 °F 48 °F (1975)
Degree Days  
Heating Degree Days 0 0  
Month to date heating degree days 0 0  
Since 1 June heating degree days 0 4  
Since 1 July heating degree days 0 0  
Cooling Degree Days 10 15  
Month to date cooling degree days 21 30  
Year to date cooling degree days 530 586  
Since 1 June cooling degree days 352 377  
Growing Degree Days 24 (Base 50)    
Moisture  
Dew Point 71 °F    
Average Humidity 90    
Maximum Humidity 93    
Minimum Humidity 87    
Precipitation  
Precipitation 0.30 in 0.13 in 1.81 in (1946)
Month to date precipitation 1.02 0.26  
Year to date precipitation 30.13 20.81  
Sea Level Pressure  
Sea Level Pressure 30.11 in    
Wind  
Wind Speed 8 mph (South)    
Max Wind Speed 15 mph    
Max Gust Speed 18 mph    
Visibility 9 miles    
Events Rain , Thunderstorm    
T = Trace of Precipitation, MM = Missing Value Source: NWS Daily Summary

Daily Weather History Graph

Daily Weather History Graph

Search for Another Location

Airport or City:

Trip Planner

Search our weather history database for the weather conditions in past years. The results will help you decide how hot, cold, wet, or windy it might be!

Date:

Astronomy

Jul. 02, 2013 Rise Set
Actual Time 6:02 AM EDT 8:35 PM EDT
Civil Twilight 5:32 AM EDT 9:05 PM EDT
Nautical Twilight 4:55 AM EDT 9:42 PM EDT
Astronomical Twilight 4:14 AM EDT 10:23 PM EDT
Moon 1:58 AM EDT (7/2) 3:52 PM EDT (7/2)
Length of Visible Light 15h 32m
Length of Day
14h 32m
Waning Crescent, 26% of the Moon is Illuminated
Jul 2
Waning Crescent
Jul 8
New
Jul 15
First Quarter
Jul 22
Full
Jul 29
Last Quarter

Hourly Weather History & Observations

Time (EDT) Temp. Dew Point Humidity Pressure Visibility Wind Dir Wind Speed Gust Speed Precip Events Conditions
12:51 AM 73.9 °F 71.1 °F 91% 30.00 in 10.0 mi SSW 9.2 mph - 0.00 in Rain Light Rain
1:06 AM 73.4 °F 71.6 °F 94% 30.02 in 10.0 mi SSW 11.5 mph - 0.00 in   Mostly Cloudy
1:26 AM 73.4 °F 71.6 °F 94% 30.02 in 10.0 mi SW 9.2 mph - 0.00 in   Mostly Cloudy
1:51 AM 73.9 °F 70.0 °F 87% 30.01 in 10.0 mi SSW 9.2 mph - 0.00 in   Mostly Cloudy
2:51 AM 73.9 °F 70.0 °F 87% 30.02 in 10.0 mi SSW 11.5 mph 17.3 mph N/A   Mostly Cloudy
3:51 AM 73.9 °F 70.0 °F 87% 30.03 in 7.0 mi SSW 8.1 mph - 0.00 in Rain Light Rain
4:51 AM 73.0 °F 71.1 °F 93% 30.04 in 10.0 mi SSW 6.9 mph - 0.00 in   Mostly Cloudy
5:51 AM 73.9 °F 70.0 °F 87% 30.06 in 10.0 mi SSW 8.1 mph - N/A   Mostly Cloudy
6:51 AM 73.9 °F 70.0 °F 87% 30.08 in 10.0 mi SSW 9.2 mph - N/A   Mostly Cloudy
7:04 AM 73.4 °F 69.8 °F 88% 30.09 in 10.0 mi South 5.8 mph - N/A   Mostly Cloudy
7:51 AM 73.9 °F 70.0 °F 87% 30.09 in 10.0 mi South 9.2 mph - N/A   Overcast
8:15 AM 73.4 °F 71.6 °F 94% 30.11 in 10.0 mi South 8.1 mph - N/A   Overcast
8:51 AM 75.0 °F 71.1 °F 87% 30.11 in 10.0 mi SSW 8.1 mph - N/A   Overcast
10:51 AM 73.9 °F 71.1 °F 91% 30.13 in 4.0 mi SSW 10.4 mph - 0.03 in Rain Light Rain
11:07 AM 73.4 °F 69.8 °F 88% 30.15 in 4.0 mi SSW 11.5 mph - 0.05 in Rain , Thunderstorm Light Thunderstorms and Rain
11:41 AM 73.4 °F 69.8 °F 88% 30.16 in 9.0 mi South 8.1 mph - 0.11 in Rain Light Rain
11:51 AM 73.0 °F 70.0 °F 90% 30.15 in 9.0 mi South 9.2 mph - 0.11 in Rain Light Rain
12:51 PM 72.0 °F 69.1 °F 91% 30.15 in 5.0 mi SSW 13.8 mph - 0.09 in Rain Light Rain
1:51 PM 73.0 °F 70.0 °F 90% 30.15 in 10.0 mi South 8.1 mph - 0.04 in Rain Light Rain
2:51 PM 73.9 °F 71.1 °F 91% 30.16 in 10.0 mi South 9.2 mph - 0.00 in Rain Light Rain
3:51 PM 73.9 °F 71.1 °F 91% 30.16 in 9.0 mi South 8.1 mph - 0.00 in Rain Light Rain
4:05 PM 73.4 °F 71.6 °F 94% 30.17 in 10.0 mi SSE 8.1 mph - 0.01 in Rain Light Rain
4:51 PM 73.9 °F 71.1 °F 91% 30.15 in 10.0 mi South 6.9 mph - 0.01 in Rain Light Rain
5:07 PM 73.4 °F 71.6 °F 94% 30.16 in 10.0 mi SSE 4.6 mph - 0.00 in Rain Light Rain
5:51 PM 73.9 °F 71.1 °F 91% 30.14 in 10.0 mi SE 9.2 mph - 0.00 in Rain Light Rain
6:51 PM 73.9 °F 71.1 °F 91% 30.14 in 10.0 mi South 6.9 mph - 0.00 in Rain Light Rain
7:51 PM 73.9 °F 71.1 °F 91% 30.16 in 10.0 mi SSE 6.9 mph - 0.00 in Rain Light Rain
8:12 PM 73.4 °F 71.6 °F 94% 30.18 in 9.0 mi SSE 6.9 mph - 0.00 in Rain Light Rain
8:21 PM 73.4 °F 71.6 °F 94% 30.18 in 8.0 mi SSE 4.6 mph - 0.00 in Rain Light Rain
8:51 PM 73.0 °F 71.1 °F 93% 30.17 in 10.0 mi SSE 5.8 mph - 0.01 in Rain Light Rain
9:51 PM 73.0 °F 71.1 °F 93% 30.19 in 10.0 mi SE 5.8 mph - 0.00 in Rain Light Rain
10:51 PM 73.0 °F 71.1 °F 93% 30.19 in 10.0 mi SE 6.9 mph - 0.01 in Rain Light Rain
11:51 PM 73.9 °F 71.1 °F 91% 30.18 in 10.0 mi SE 8.1 mph - 0.00 in   Scattered Clouds